Wetbulb
54.20 54.32 53.69 53.79 53.82 53.26 52.89 52.17 49.24 44.59 46.45 50.79 51.05 55.67 56.92 57.71 56.65 57.62 57.65 56.23 57.14 57.74 58.72 59.35 59.16 59.32 59.85 60.66 61.34 61.53 62.21 62.33 62.38 62.62 63.03 63.35 64.05 65.01
53.05 53.21 53.15 53.32 53.07 53.15 53.13 52.08 50.99 49.27 46.02 49.95 50.50 52.75 54.04 54.45 54.74 54.19 54.33 51.49 54.07 56.40 57.36 56.83 56.98 57.38 57.85 58.51 58.93 59.38 59.72 60.08 60.49 61.28 61.67 62.29 62.70 63.18
50.95 51.67 52.04 52.89 52.09 52.28 52.22 51.24 48.99 48.56 45.31 47.23 49.35 50.77 50.85 51.26 52.21 53.16 52.94 52.71 53.36 54.25 56.03 56.56 56.26 56.20 56.52 56.72 57.11 57.90 58.37 58.87 59.51 60.18 60.62 61.26 61.90 62.17
48.01 49.28 50.24 51.54 51.36 51.67 50.40 49.46 48.86 48.42 46.50 44.36 46.63 46.93 47.70 49.21 50.23 50.02 50.78 51.88 53.14 54.01 54.64 54.87 55.49 55.80 55.78 55.85 55.78 56.13 56.06 56.39 56.90 57.72 58.64 59.54 60.24 60.79
46.57 47.59 48.55 49.69 49.81 49.68 49.57 48.87 48.68 48.25 47.24 45.51 45.06 47.33 46.76 47.48 47.96 50.15 50.07 50.44 52.22 51.46 54.08 54.29 54.90 55.71 55.46 55.19 55.08 54.83 54.35 54.31 54.50 54.65 55.18 56.00 56.83 57.45
45.60 46.47 47.81 48.34 48.70 49.65 49.97 49.65 48.65 47.67 46.99 45.67 45.45 45.29 45.21 46.30 46.77 46.90 46.39 48.57 50.09 52.32 52.77 53.78 54.53 54.73 54.76 55.15 54.43 53.13 52.59 52.89 53.72 54.14 53.80 53.48 53.66 55.12
44.44 45.32 46.02 46.63 46.28 47.79 48.31 48.70 48.71 47.52 46.44 45.17 44.04 44.07 43.51 43.41 43.52 46.65 46.60 47.26 48.16 50.54 50.07 53.81 55.62 56.87 56.64 53.03 52.61 50.65 51.23 51.47 51.44 51.57 52.14 53.08 53.35 53.70
41.71 43.69 44.90 44.54 45.87 47.26 47.58 47.71 48.02 47.40 46.41 44.78 43.82 42.69 42.88 43.74 44.86 45.25 45.49 44.61 43.39 49.01 48.34 48.23 52.00 55.10 55.18 54.67 49.56 49.98 49.67 50.25 50.24 50.66 51.31 52.11 52.26 52.49
39.46 41.04 42.58 44.24 44.55 45.31 45.40 46.13 47.82 48.11 48.09 47.50 44.64 43.98 43.64 44.38 44.44 43.79 43.90 44.09 43.38 45.79 46.27 44.32 49.00 51.63 51.44 48.34 47.14 47.81 48.92 49.30 49.55 50.12 50.70 51.02 51.17 51.27
39.15 39.42 40.43 41.05 42.34 43.30 42.76 42.77 44.40 46.36 47.87 47.52 46.62 46.30 46.20 45.92 44.67 44.85 43.69 42.47 42.47 43.25 44.52 41.12 46.83 49.06 47.97 47.93 45.98 45.96 47.78 48.57 49.25 49.57 50.37 50.25 49.18 48.85
39.45 39.64 39.28 39.19 41.24 42.91 41.72 41.39 42.39 43.98 46.55 47.19 46.96 46.62 46.60 46.32 45.87 43.16 40.52 39.19 38.42 41.80 46.87 45.32 47.09 45.38 43.83 43.77 44.47 44.72 46.00 48.65 49.49 49.71 49.67 48.72 48.38 48.93
39.02 39.30 41.07 40.25 42.14 42.67 41.48 41.15 40.52 41.66 43.77 44.83 45.21 45.27 45.12 44.67 45.11 44.21 42.08 37.86 37.32 36.52 41.43 39.86 40.42 40.51 36.83 39.49 40.23 41.65 43.51 44.32 47.75 48.51 48.56 47.96 47.68 47.68
37.22 38.06 39.21 41.54 41.29 41.29 41.68 40.88 41.02 42.70 43.31 43.93 42.95 42.95 42.75 42.56 41.40 41.06 39.89 38.53 35.47 35.94 39.62 36.34 34.34 35.90 34.51 34.40 36.24 38.06 39.54 40.16 41.34 43.56 46.44 46.25 46.30 46.07
36.32 37.53 38.75 40.52 40.71 41.07 40.66 41.13 42.08 43.13 42.11 42.01 41.72 40.49 39.90 39.17 39.35 38.30 37.62 37.00 37.36 36.13 36.31 35.21 32.56 35.92 33.76 33.10 33.59 33.48 35.63 36.51 37.08 36.77 38.86 44.02 45.36 45.50
37.55 38.30 39.58 39.77 40.35 40.49 40.96 41.34 41.98 41.49 40.41 39.42 38.62 38.13 38.29 39.00 36.97 34.68 34.82 34.46 34.38 33.97 34.33 33.11 33.00 32.91 34.01 33.87 33.08 32.52 33.04 32.88 34.44 35.11 36.00 36.13 37.12 38.28
38.18 37.60 38.35 39.00 39.56 39.33 38.95 38.49 38.91 39.99 39.80 39.55 38.64 38.12 35.91 34.91 34.61 34.96 33.51 33.26 32.87 33.33 32.96 33.08 32.56 32.45 33.07 34.14 33.53 32.59 32.59 32.30 32.39 32.94 33.43 34.05 35.46 36.64
35.98 35.52 34.74 34.32 33.97 34.89 35.12 35.45 37.41 38.22 37.62 38.62 36.82 35.24 34.36 33.73 33.19 34.04 33.27 32.84 32.11 32.93 32.37 31.45 32.00 31.95 31.66 32.40 31.96 32.00 31.21 30.93 31.80 31.65 32.03 31.07 31.84 33.75
33.94 33.04 32.25 32.73 33.04 34.06 34.08 34.38 35.60 36.76 36.43 35.66 35.19 34.77 33.92 33.39 32.93 32.41 32.28 32.08 31.81 32.42 32.13 30.41 30.29 31.06 31.21 30.56 33.09 29.84 29.29 28.82 29.74 30.83 31.08 30.06 29.32 31.58
32.59 31.77 31.58 31.99 32.93 33.79 33.47 33.66 34.26 35.47 35.47 34.99 34.30 33.83 33.44 33.09 33.55 32.15 31.28 31.06 30.80 31.62 31.14 29.01 28.54 29.41 30.31 29.17 28.02 31.86 28.14 28.14 28.48 28.51 29.79 30.49 29.65 30.45
31.97 31.09 31.26 32.69 33.33 32.72 32.75 33.95 34.93 35.17 33.41 33.77 33.56 33.01 32.61 32.47 32.18 31.95 31.25 30.62 30.35 29.90 28.66 27.90 27.29 27.96 30.19 29.81 26.78 26.04 30.99 28.78 29.31 27.93 28.02 28.97 29.45 31.42
30.60 30.80 32.13 33.09 33.04 32.58 32.68 33.82 34.95 34.06 32.94 32.18 32.22 32.24 31.97 31.65 30.43 30.10 29.20 31.09 30.97 28.54 27.19 27.72 25.85 26.16 28.36 29.97 26.29 24.91 26.02 29.61 30.18 29.94 28.72 27.73 27.47 27.42
31.48 31.64 32.04 33.18 32.04 32.55 32.78 33.26 34.13 32.80 32.04 31.79 31.72 31.40 31.06 30.48 27.85 26.06 27.31 24.89 24.86 22.09 20.60 20.48 18.14 19.47 20.69 24.07 22.21 21.08 23.44 25.85 28.34 29.76 29.81 29.68 27.41 24.50
31.93 32.37 32.98 32.26 32.61 32.85 33.19 33.03 32.92 32.20 31.72 31.35 30.61 30.24 29.78 27.91 27.36 28.46 26.93 24.56 22.97 20.63 21.03 19.56 18.47 19.09 19.13 21.34 21.92 21.61 19.24 22.80 25.34 24.87 25.27 28.79 29.29 29.72
MSLP
1012.49 1012.38 1012.11 1011.82 1011.67 1011.70 1011.80 1011.64 1011.90 1011.61 1010.79 1010.13 1009.79 1009.46 1009.23 1008.99 1009.22 1009.11 1009.21 1008.96 1009.10 1008.88 1008.80 1009.14 1008.66 1008.73 1008.75 1008.89 1008.91 1008.94 1009.01 1009.14 1009.30 1009.44 1009.56 1009.65 1009.71 1009.72
1011.99 1011.80 1011.62 1011.42 1011.34 1011.31 1011.26 1011.41 1011.75 1011.75 1011.09 1010.51 1010.28 1009.92 1009.66 1009.20 1009.13 1009.11 1008.96 1008.86 1008.64 1008.40 1008.14 1008.34 1007.99 1008.11 1008.08 1008.15 1008.24 1008.31 1008.38 1008.50 1008.64 1008.76 1008.83 1008.84 1008.88 1008.91
1011.59 1011.30 1011.08 1011.01 1010.82 1010.74 1010.65 1010.90 1011.31 1011.54 1011.04 1010.67 1010.78 1010.41 1009.83 1009.72 1009.21 1008.88 1008.51 1008.39 1007.88 1007.93 1007.67 1007.52 1007.30 1007.47 1007.38 1007.44 1007.52 1007.58 1007.65 1007.74 1007.88 1007.99 1008.06 1008.10 1008.17 1008.18
1011.81 1011.19 1010.64 1010.45 1010.41 1010.40 1010.32 1010.48 1010.77 1011.01 1011.01 1010.64 1010.40 1010.11 1009.90 1009.51 1009.28 1008.90 1008.43 1008.10 1007.57 1007.36 1007.08 1006.85 1006.58 1006.62 1006.58 1006.67 1006.82 1006.91 1007.00 1007.07 1007.20 1007.36 1007.42 1007.48 1007.48 1007.47
1011.46 1011.04 1010.67 1010.29 1009.88 1009.74 1009.80 1009.95 1010.11 1010.23 1010.27 1010.21 1009.88 1009.82 1009.56 1009.41 1009.08 1008.28 1007.85 1007.86 1007.25 1007.15 1006.60 1006.11 1005.76 1005.74 1005.74 1005.91 1006.08 1006.20 1006.39 1006.52 1006.66 1006.80 1006.88 1006.91 1007.00 1007.03
1011.42 1010.89 1010.31 1010.00 1009.71 1009.37 1009.20 1009.14 1009.20 1009.37 1009.47 1009.51 1009.32 1009.20 1009.21 1009.16 1008.93 1008.34 1007.80 1007.73 1007.09 1006.79 1006.09 1005.48 1005.02 1004.87 1005.03 1005.28 1005.51 1005.81 1005.98 1006.16 1006.26 1006.29 1006.39 1006.38 1006.29 1006.15
1011.17 1010.60 1010.00 1009.53 1009.21 1009.15 1009.04 1008.78 1008.46 1008.54 1008.62 1008.73 1008.73 1008.66 1008.53 1008.62 1008.52 1008.03 1007.74 1007.64 1007.25 1006.76 1006.19 1005.19 1004.58 1004.34 1004.39 1004.71 1004.99 1005.34 1005.48 1005.69 1005.96 1005.94 1005.84 1005.67 1005.53 1005.46
1011.14 1010.31 1009.68 1009.25 1008.79 1008.58 1008.52 1008.39 1008.32 1008.22 1007.75 1007.81 1007.98 1008.02 1007.93 1008.11 1008.21 1008.12 1007.81 1007.81 1007.13 1006.56 1006.29 1005.61 1005.14 1004.40 1004.20 1004.35 1004.96 1005.25 1005.39 1005.41 1005.42 1005.33 1005.28 1005.09 1005.00 1004.86
1011.08 1010.35 1009.46 1008.88 1008.48 1008.09 1007.90 1007.71 1007.39 1007.29 1007.31 1007.36 1007.11 1007.18 1007.28 1007.50 1007.75 1007.73 1007.69 1007.70 1007.39 1006.99 1006.96 1006.07 1005.31 1004.73 1004.42 1004.52 1004.95 1005.15 1005.01 1004.92 1004.90 1004.82 1004.85 1004.73 1004.67 1004.60
1010.40 1010.08 1009.60 1009.07 1008.53 1008.12 1007.61 1007.29 1006.89 1006.52 1006.34 1006.45 1006.49 1006.34 1006.49 1006.80 1007.17 1007.34 1007.57 1007.60 1007.32 1006.90 1006.98 1006.05 1004.94 1004.53 1004.38 1004.44 1004.75 1004.86 1004.75 1004.61 1004.55 1004.33 1004.41 1004.43 1004.46 1004.56
1009.31 1009.11 1008.87 1008.45 1008.09 1007.82 1007.44 1006.98 1006.48 1005.99 1005.75 1005.52 1005.62 1005.78 1005.96 1006.15 1006.80 1007.30 1007.31 1007.55 1006.93 1006.29 1005.60 1005.54 1004.69 1004.60 1004.66 1004.60 1004.66 1004.83 1004.51 1004.37 1004.18 1004.06 1004.22 1004.33 1004.38 1004.28
1008.35 1008.05 1007.83 1007.66 1007.43 1007.17 1006.85 1006.44 1005.89 1005.52 1005.25 1005.02 1005.10 1005.30 1005.48 1005.67 1006.04 1006.48 1006.72 1007.06 1007.11 1006.72 1006.21 1006.02 1005.19 1005.12 1005.02 1004.64 1004.72 1004.78 1004.48 1004.55 1004.22 1004.01 1004.24 1004.36 1004.34 1004.29
1007.71 1007.25 1006.96 1006.84 1006.67 1006.52 1006.33 1006.00 1005.48 1005.22 1004.81 1004.55 1004.42 1004.55 1004.78 1004.93 1005.34 1005.78 1006.16 1006.53 1006.82 1006.54 1006.26 1006.35 1005.95 1005.52 1005.47 1005.25 1005.01 1004.93 1004.77 1004.65 1004.57 1004.28 1004.40 1004.51 1004.45 1004.36
1007.05 1006.67 1006.21 1006.02 1005.90 1005.77 1005.55 1005.26 1004.93 1004.58 1004.25 1004.06 1003.73 1003.86 1004.18 1004.44 1004.92 1005.39 1005.66 1005.97 1006.17 1006.28 1006.38 1006.60 1006.35 1005.85 1005.67 1005.53 1005.37 1005.20 1005.20 1004.95 1004.87 1004.77 1004.72 1004.82 1004.67 1004.48
1006.32 1005.92 1005.58 1005.32 1005.14 1004.80 1004.49 1004.25 1004.02 1003.58 1003.32 1003.25 1003.06 1003.21 1003.42 1003.57 1004.31 1004.99 1005.26 1005.56 1005.82 1005.95 1006.16 1006.33 1006.18 1005.87 1005.78 1005.36 1005.26 1005.30 1005.33 1005.31 1005.18 1005.13 1005.13 1005.39 1005.30 1005.25
1005.35 1005.13 1004.85 1004.49 1004.27 1003.97 1003.56 1003.43 1003.20 1002.83 1002.49 1002.27 1002.23 1002.43 1002.81 1003.38 1003.91 1004.38 1004.86 1005.16 1005.42 1005.44 1005.79 1005.85 1005.66 1005.52 1005.22 1005.00 1004.97 1005.11 1005.20 1005.29 1005.41 1005.51 1005.55 1005.79 1005.76 1005.69
1005.00 1004.59 1004.15 1003.79 1003.36 1003.10 1002.80 1002.56 1002.45 1002.07 1001.84 1001.50 1001.52 1001.83 1002.25 1002.79 1003.32 1003.77 1004.20 1004.53 1004.80 1004.85 1005.16 1005.41 1005.50 1005.37 1005.13 1004.90 1004.91 1004.94 1005.25 1005.50 1005.56 1005.71 1005.88 1006.17 1006.45 1006.38
1004.11 1003.77 1003.28 1002.96 1002.61 1002.28 1002.07 1001.78 1001.57 1001.36 1001.19 1001.07 1000.99 1001.12 1001.60 1002.15 1002.75 1003.28 1003.71 1004.04 1004.32 1004.43 1004.61 1005.05 1005.35 1005.35 1005.10 1005.19 1005.10 1005.17 1005.40 1005.70 1005.94 1005.99 1006.07 1006.32 1006.78 1006.94
1003.05 1002.72 1002.36 1002.09 1001.64 1001.48 1001.27 1001.14 1000.73 1000.45 1000.46 1000.44 1000.49 1000.68 1001.13 1001.62 1002.18 1002.64 1003.13 1003.49 1003.78 1004.07 1004.31 1004.84 1005.10 1005.18 1005.07 1005.16 1005.69 1005.54 1005.68 1005.94 1006.19 1006.42 1006.49 1006.46 1006.81 1006.99
1001.93 1001.62 1001.21 1000.90 1000.66 1000.62 1000.58 1000.39 999.96 999.70 999.79 999.84 1000.00 1000.19 1000.57 1001.04 1001.64 1002.02 1002.43 1002.87 1003.31 1003.76 1004.25 1004.73 1004.99 1005.02 1004.93 1004.91 1005.37 1006.12 1005.91 1006.06 1006.19 1006.57 1006.88 1007.09 1007.35 1007.27
1000.84 1000.45 1000.15 999.94 999.87 999.78 999.71 999.59 999.07 998.91 999.00 999.17 999.40 999.74 1000.13 1000.71 1001.21 1001.55 1001.99 1002.40 1002.82 1003.56 1004.08 1004.54 1004.94 1005.16 1005.12 1005.06 1005.43 1006.10 1006.52 1006.33 1006.37 1006.50 1006.97 1007.34 1007.45 1007.35
999.75 999.50 999.40 999.06 999.02 998.87 998.78 998.67 998.23 998.26 998.33 998.61 998.96 999.38 999.88 1000.39 1000.91 1001.35 1001.77 1002.26 1002.84 1003.44 1004.03 1004.69 1005.14 1005.30 1005.20 1005.18 1005.36 1006.03 1006.46 1006.64 1006.58 1006.70 1006.90 1006.92 1007.23 1007.33
998.79 998.60 998.41 998.22 998.11 997.99 997.88 997.71 997.52 997.49 997.71 998.13 998.61 999.14 999.68 1000.25 1000.71 1001.21 1001.62 1002.16 1002.94 1003.65 1004.17 1004.89 1005.17 1005.28 1005.25 1005.43 1005.53 1006.22 1006.56 1006.65 1006.79 1006.96 1007.03 1007.02 1007.29 1007.23
Wind_Speed
9 10 8 7 7 6 7 4 5 8 7 6 5 5 4 3 4 4 7 10 10 8 10 13 12 12 13 13 12 12 11 11 11 12 13 14 16 17
8 10 10 8 8 7 6 5 6 9 10 4 6 8 9 8 7 7 8 10 12 14 15 15 14 14 14 14 13 13 13 13 13 15 17 17 18 18
10 11 12 12 8 8 6 6 7 8 11 9 8 9 11 11 10 9 7 9 8 13 13 13 13 14 14 15 15 14 13 13 14 16 17 18 18 18
12 12 12 9 12 11 10 9 8 11 9 13 10 9 12 10 11 12 9 8 9 12 14 13 14 14 13 14 14 14 13 14 13 13 14 16 17 19
12 11 12 13 12 9 9 9 8 9 10 10 9 7 9 10 10 10 7 10 8 13 18 19 19 16 14 13 14 13 12 11 11 11 13 14 15 19
13 13 12 12 13 12 11 11 9 9 8 7 8 8 6 8 7 9 9 8 8 10 12 11 12 9 10 13 12 11 9 9 10 12 17 15 15 16
13 13 12 13 12 12 9 10 9 9 8 7 8 8 7 7 8 7 5 7 8 6 10 10 8 5 5 9 6 8 6 5 10 12 13 15 14 14
14 13 13 14 13 14 18 20 17 12 10 8 7 10 10 8 6 7 6 6 5 5 6 11 8 6 2 3 5 2 5 6 9 9 10 10 11 11
13 14 13 10 11 12 18 20 18 21 21 13 11 11 12 8 6 8 8 5 7 7 6 9 6 7 3 3 4 4 5 8 8 8 9 7 8 8
11 13 12 13 13 14 15 13 13 12 12 11 14 13 10 7 7 6 6 6 7 7 7 6 6 7 3 3 4 2 6 7 9 6 7 5 1 4
10 11 12 14 18 18 13 13 13 12 10 15 16 16 12 8 6 3 5 4 5 3 2 5 4 2 1 2 3 2 5 4 4 3 3 6 6 3
11 11 14 14 18 19 13 12 12 11 10 9 8 11 11 9 12 11 6 6 5 4 1 3 3 0 3 1 2 1 1 4 3 3 4 3 0 2
9 10 8 14 16 18 18 11 12 11 12 11 9 9 7 5 4 4 6 6 5 6 3 2 2 2 1 2 2 1 1 1 2 3 4 3 4 4
12 10 11 15 15 17 17 21 22 18 9 9 8 8 7 5 5 6 7 5 5 6 3 0 3 1 0 1 2 1 2 2 2 1 3 7 11 13
10 14 21 22 21 18 18 19 18 9 9 9 8 8 7 5 5 4 4 4 4 4 3 3 5 5 3 3 2 2 3 0 2 1 3 4 2 3
10 10 14 18 20 18 15 11 9 9 8 8 8 7 4 4 4 4 4 5 3 3 4 3 4 5 3 4 2 2 1 3 1 2 3 4 4 4
18 11 10 10 10 9 8 8 8 8 8 7 7 6 6 5 4 4 3 3 4 3 3 2 2 3 4 1 1 2 2 2 2 2 2 4 4 4
12 9 11 10 11 9 8 8 8 10 8 6 6 6 6 6 5 3 2 4 5 4 3 2 2 2 1 4 9 2 2 2 1 2 2 3 2 2
9 10 11 11 10 7 7 9 10 8 8 7 7 6 5 6 7 5 5 4 4 4 2 2 2 2 3 2 1 12 2 2 2 2 2 2 3 2
9 10 11 10 8 7 7 10 9 7 7 7 7 6 6 6 5 6 6 5 5 5 4 3 3 2 2 2 3 2 9 3 2 2 2 3 3 3
10 10 10 9 8 8 8 9 9 8 7 6 6 6 6 6 7 6 5 10 9 7 6 4 3 2 0 1 3 2 2 6 5 2 4 3 3 2
10 9 10 8 8 9 8 9 8 7 6 6 6 6 6 6 5 5 4 4 3 3 3 4 2 2 1 2 3 4 3 3 5 7 7 6 1 3
9 9 8 8 8 8 9 9 8 7 6 6 6 6 7 6 5 5 5 5 5 4 5 4 2 2 1 2 6 3 3 2 2 3 2 7 5 6
Wind_Direction
265 262 258 256 253 258 270 249 258 276 280 269 292 296 310 358 303 321 319 312 307 281 269 261 256 258 258 256 253 253 252 249 247 252 255 255 256 256
271 266 259 250 249 244 236 236 251 256 267 278 283 303 321 316 309 310 292 284 276 270 261 253 250 251 252 252 247 242 239 237 243 248 254 256 256 257
278 273 270 264 257 259 248 222 235 250 261 271 275 283 294 297 297 293 292 295 288 274 266 254 242 242 244 247 246 241 241 242 243 248 254 256 257 260
291 290 275 264 257 255 254 249 238 244 250 261 265 276 276 284 292 293 282 282 288 282 276 275 260 240 238 240 241 237 238 243 244 250 256 255 258 258
286 275 281 282 271 254 241 239 240 245 248 253 263 261 278 283 284 281 299 296 296 280 270 262 254 245 240 235 237 233 235 242 249 258 257 255 263 270
296 292 283 272 278 276 259 247 237 236 237 243 257 262 265 276 283 284 289 295 301 307 294 283 268 233 243 242 238 238 228 235 255 268 269 264 254 251
290 286 282 280 277 277 282 282 253 233 232 241 252 261 258 268 273 278 284 295 292 297 290 281 266 229 219 216 225 211 211 222 257 264 273 272 264 256
291 288 287 286 276 267 275 265 262 272 244 226 238 255 260 264 266 274 284 290 300 294 344 310 323 304 186 91 100 206 247 255 266 280 288 281 271 264
287 287 288 284 285 280 278 275 262 252 250 257 240 233 260 249 255 274 277 276 273 286 311 291 304 289 177 130 150 270 276 263 265 271 275 289 295 288
274 283 287 295 296 305 292 282 278 270 245 240 243 249 245 257 257 262 279 281 275 270 246 257 264 246 177 154 167 324 294 280 264 265 279 291 50 71
267 266 278 283 284 283 281 282 276 270 268 237 233 240 237 208 214 215 244 254 282 264 243 252 237 238 243 211 155 216 34 342 254 234 235 150 157 121
279 269 264 274 280 285 284 281 276 272 264 245 229 234 238 231 224 230 223 234 245 298 56 293 338 117 283 207 187 272 254 14 52 114 154 158 337 88
284 286 277 273 279 284 290 287 276 279 281 262 224 221 218 208 180 197 199 210 218 239 37 27 307 314 215 316 312 318 330 356 10 51 105 119 118 113
276 282 284 281 285 284 285 282 280 274 265 263 224 206 207 196 196 192 188 199 222 244 337 99 263 283 280 288 250 347 335 23 30 34 48 73 82 91
263 273 284 285 281 281 278 281 283 266 251 253 221 210 206 188 160 165 162 182 210 229 219 220 238 260 240 240 206 196 164 227 37 48 56 41 39 33
273 277 283 284 280 276 279 280 270 262 249 246 220 208 154 139 170 172 178 176 191 197 195 225 255 223 240 226 177 171 161 172 105 68 89 59 47 50
285 283 279 278 276 272 267 265 265 258 257 240 204 181 170 165 173 166 163 154 201 177 169 151 33 65 64 53 174 138 137 99 85 114 89 93 36 34
279 268 273 271 270 266 264 270 258 253 248 226 205 183 180 177 173 157 151 189 216 214 179 151 183 223 178 64 38 111 77 97 83 82 72 92 87 28
264 267 268 270 269 253 263 269 269 243 233 217 201 186 175 177 188 182 183 186 204 214 170 140 185 231 196 193 57 34 104 101 104 79 59 65 125 129
259 263 266 262 255 259 271 270 264 247 217 215 207 188 179 179 188 190 183 188 200 205 182 162 195 199 267 177 143 83 32 112 115 108 100 51 62 119
257 261 260 254 250 261 266 268 257 234 211 199 193 180 167 173 196 190 182 188 192 189 200 172 121 126 115 185 101 116 58 51 53 110 140 151 165 147
260 262 267 245 263 263 262 261 252 225 198 187 178 165 159 167 166 152 152 146 139 145 100 94 137 184 150 226 115 119 124 120 92 98 78 61 164 172
260 260 258 259 265 260 253 258 237 213 188 172 159 150 151 155 143 152 134 114 114 112 126 127 132 66 63 99 119 95 108 133 132 136 83 63 61 69